,,,PA_Meas_PMT16A,,PR_Meas_QMR101_102,,RH_Meas_QMH101,,SR_Meas_QMS101,,TA_Meas_QMH101,,GenWind,,GenWind,
date,time,status,PA,status,PR,status,RH,status,SR,status,TA,status,DirAvg,status,SpdAvg,
2012-03-23, 00:00:04,VALID,1001.42,VALID,0,VALID,94.7065,VALID,0,VALID,24.5013,VALID,156,VALID,0,
2012-03-23, 00:01:04,VALID,1001.4,VALID,0,VALID,94.7217,VALID,0,VALID,24.4818,VALID,156,VALID,0,
2012-03-23, 00:02:04,VALID,1001.4,VALID,0,VALID,94.7141,VALID,0,VALID,24.4818,VALID,156,VALID,0,
2012-03-23, 00:03:04,VALID,1001.42,VALID,0,VALID,94.7675,VALID,0,VALID,24.4604,VALID,156,VALID,0,
2012-03-23, 00:04:04,VALID,1001.38,VALID,0,VALID,94.7828,VALID,0,VALID,24.48,VALID,156,VALID,0,
2012-03-23, 00:05:04,VALID,1001.37,VALID,0,VALID,94.798,VALID,0,VALID,24.4818,VALID,156,VALID,0,
2012-03-23, 00:06:04,VALID,1001.36,VALID,0,VALID,94.8209,VALID,0,VALID,24.4623,VALID,156,VALID,0,
2012-03-23, 00:07:04,VALID,1001.37,VALID,0,VALID,94.8438,VALID,0,VALID,24.4818,VALID,156,VALID,0,
2012-03-23, 00:08:04,VALID,1001.37,VALID,0,VALID,94.8438,VALID,0,VALID,24.4623,VALID,156,VALID,0,
2012-03-23, 00:09:04,VALID,1001.38,VALID,0,VALID,94.8667,VALID,0,VALID,24.4623,VALID,156,VALID,0,
2012-03-23, 00:10:04,VALID,1001.39,VALID,0,VALID,94.8743,VALID,0,VALID,24.4623,VALID,156,VALID,0,
2012-03-23, 00:11:04,VALID,1001.39,VALID,0,VALID,94.8667,VALID,0,VALID,24.4623,VALID,156,VALID,0,
2012-03-23, 00:12:04,VALID,1001.38,VALID,0,VALID,94.9048,VALID,0,VALID,24.4623,VALID,156,VALID,0,
2012-03-23, 00:13:04,VALID,1001.38,VALID,0,VALID,94.9048,VALID,0,VALID,24.4623,VALID,156,VALID,0,
2012-03-23, 00:14:04,VALID,1001.39,VALID,0,VALID,94.9125,VALID,0,VALID,24.4623,VALID,156,VALID,0,
2012-03-23, 00:15:04,VALID,1001.36,VALID,0,VALID,94.9201,VALID,0,VALID,24.4623,VALID,156,VALID,0,
2012-03-23, 00:16:04,VALID,1001.36,VALID,0,VALID,94.943,VALID,0,VALID,24.4623,VALID,156,VALID,0,
2012-03-23, 00:17:04,VALID,1001.36,VALID,0,VALID,94.9583,VALID,0,VALID,24.4623,VALID,156,VALID,0,
2012-03-23, 00:18:04,VALID,1001.36,VALID,0,VALID,94.9583,VALID,0,VALID,24.4623,VALID,156,VALID,0,
2012-03-23, 00:19:04,VALID,1001.34,VALID,0,VALID,94.9735,VALID,0,VALID,24.4818,VALID,156,VALID,0,
2012-03-23, 00:20:04,VALID,1001.37,VALID,0,VALID,94.9735,VALID,0,VALID,24.4623,VALID,156,VALID,0,
2012-03-23, 00:21:04,VALID,1001.37,VALID,0,VALID,94.9811,VALID,0,VALID,24.4623,VALID,156,VALID,0,
2012-03-23, 00:22:04,VALID,1001.38,VALID,0,VALID,94.9811,VALID,0,VALID,24.4818,VALID,156,VALID,0,
2012-03-23, 00:23:04,VALID,1001.35,VALID,0,VALID,95.0117,VALID,0,VALID,24.4818,VALID,156,VALID,0.650781,
2012-03-23, 00:24:04,VALID,1001.39,VALID,0,VALID,94.9964,VALID,0,VALID,24.5013,VALID,156,VALID,0.757422,
2012-03-23, 00:25:04,VALID,1001.36,VALID,0,VALID,95.004,VALID,0,VALID,24.5013,VALID,171,VALID,1.18477,
2012-03-23, 00:26:04,VALID,1001.33,VALID,0,VALID,95.0193,VALID,0,VALID,24.5404,VALID,170,VALID,1.39883,
2012-03-23, 00:27:04,VALID,1001.35,VALID,0,VALID,95.0269,VALID,0,VALID,24.5794,VALID,180,VALID,1.43359,
2012-03-23, 00:28:04,VALID,1001.33,VALID,0,VALID,95.0269,VALID,0,VALID,24.5989,VALID,170,VALID,1.25703,
2012-03-23, 00:29:04,VALID,1001.33,VALID,0,VALID,95.0269,VALID,0,VALID,24.6203,VALID,184,VALID,1.01445,
2012-03-23, 00:30:04,VALID,1001.36,VALID,0,VALID,95.0345,VALID,0,VALID,24.6184,VALID,165,VALID,1.08711,
2012-03-23, 00:31:04,VALID,1001.34,VALID,0,VALID,95.0193,VALID,0,VALID,24.6184,VALID,169,VALID,1.19219,
2012-03-23, 00:32:04,VALID,1001.34,VALID,0,VALID,94.9964,VALID,0,VALID,24.5794,VALID,169,VALID,1.02969,
2012-03-23, 00:33:04,VALID,1001.35,VALID,0,VALID,94.9735,VALID,0,VALID,24.5599,VALID,172,VALID,1.13516,
2012-03-23, 00:34:04,VALID,1001.37,VALID,0,VALID,94.943,VALID,0,VALID,24.5404,VALID,172,VALID,1.27461,
2012-03-23, 00:35:04,VALID,1001.35,VALID,0,VALID,94.882,VALID,0,VALID,24.5013,VALID,179,VALID,1.21758,
2012-03-23, 00:36:04,VALID,1001.34,VALID,0,VALID,94.8057,VALID,0,VALID,24.4623,VALID,153,VALID,0.930859,
2012-03-23, 00:37:04,VALID,1001.34,VALID,0,VALID,94.737,VALID,0,VALID,24.4233,VALID,153,VALID,0.306641,
2012-03-23, 00:38:04,VALID,1001.36,VALID,0,VALID,94.7065,VALID,0,VALID,24.4037,VALID,153,VALID,0.371875,
2012-03-23, 00:39:04,VALID,1001.36,VALID,0,VALID,94.6988,VALID,0,VALID,24.4251,VALID,153,VALID,0.313672,
2012-03-23, 00:40:04,VALID,1001.38,VALID,0,VALID,94.7141,VALID,0,VALID,24.4037,VALID,153,VALID,0.342187,
2012-03-23, 00:41:04,VALID,1001.31,VALID,0,VALID,94.737,VALID,0,VALID,24.4233,VALID,153,VALID,0.474219,
2012-03-23, 00:42:04,VALID,1001.32,VALID,0,VALID,94.7446,VALID,0,VALID,24.4233,VALID,153,VALID,0.323828,
2012-03-23, 00:43:04,VALID,1001.29,VALID,0,VALID,94.7904,VALID,0,VALID,24.4428,VALID,150,VALID,0.460156,
2012-03-23, 00:44:04,VALID,1001.28,VALID,0.5,VALID,94.8057,VALID,0,VALID,24.4623,VALID,91,VALID,0.569531,
2012-03-23, 00:45:04,VALID,1001.27,VALID,0,VALID,94.8514,VALID,0,VALID,24.4818,VALID,47,VALID,0.610156,
2012-03-23, 00:46:04,VALID,1001.27,VALID,0,VALID,94.8667,VALID,0,VALID,24.5013,VALID,29,VALID,0.461719,
2012-03-23, 00:47:04,VALID,1001.23,VALID,0,VALID,94.9048,VALID,0,VALID,24.5209,VALID,29,VALID,0.264844,
2012-03-23, 00:48:04,VALID,1001.19,VALID,0,VALID,94.9048,VALID,0,VALID,24.5013,VALID,27,VALID,1.04805,
2012-03-23, 00:49:04,VALID,1001.17,VALID,0,VALID,94.9048,VALID,0,VALID,24.5209,VALID,27,VALID,0.857031,
2012-03-23, 00:50:04,VALID,1001.12,VALID,0,VALID,94.9354,VALID,0,VALID,24.5209,VALID,27,VALID,0.935938,
2012-03-23, 00:51:04,VALID,1001.1,VALID,0,VALID,94.943,VALID,0,VALID,24.5404,VALID,32,VALID,1.03789,
2012-03-23, 00:52:04,VALID,1001.08,VALID,0,VALID,94.9583,VALID,0,VALID,24.5209,VALID,32,VALID,0.839844,
2012-03-23, 00:53:04,VALID,1001.05,VALID,0,VALID,94.9735,VALID,0,VALID,24.5209,VALID,32,VALID,0.531641,
2012-03-23, 00:54:04,VALID,1001.04,VALID,0,VALID,94.9659,VALID,0,VALID,24.5013,VALID,6,VALID,0.576953,
2012-03-23, 00:55:04,VALID,1001.05,VALID,0,VALID,94.9583,VALID,0,VALID,24.5209,VALID,6,VALID,0.596094,
2012-03-23, 00:56:04,VALID,1001.04,VALID,0,VALID,94.9735,VALID,0,VALID,24.5422,VALID,6,VALID,0.588672,
2012-03-23, 00:57:04,VALID,1001.01,VALID,0,VALID,94.9659,VALID,0,VALID,24.5209,VALID,6,VALID,0.0386719,
2012-03-23, 00:58:04,VALID,1001,VALID,0,VALID,94.9888,VALID,0,VALID,24.5422,VALID,6,VALID,0,
2012-03-23, 00:59:04,VALID,1000.97,VALID,0,VALID,94.9888,VALID,0,VALID,24.5404,VALID,6,VALID,0,
2012-03-23, 01:00:04,VALID,1000.94,VALID,0,VALID,94.9888,VALID,0,VALID,24.5209,VALID,6,VALID,0,
2012-03-23, 01:01:04,VALID,1000.93,VALID,0,VALID,94.9964,VALID,0,VALID,24.5209,VALID,6,VALID,0,
2012-03-23, 01:02:04,VALID,1000.9,VALID,0,VALID,94.9888,VALID,0,VALID,24.5209,VALID,6,VALID,0,
2012-03-23, 01:03:04,VALID,1000.9,VALID,0,VALID,94.9811,VALID,0,VALID,24.5209,VALID,6,VALID,0,
2012-03-23, 01:04:04,VALID,1000.89,VALID,0,VALID,94.9964,VALID,0,VALID,24.5209,VALID,6,VALID,0,
2012-03-23, 01:05:04,VALID,1000.87,VALID,0,VALID,94.9888,VALID,0,VALID,24.519,VALID,6,VALID,0,
2012-03-23, 01:06:04,VALID,1000.86,VALID,0,VALID,94.9888,VALID,0,VALID,24.5209,VALID,6,VALID,0,
2012-03-23, 01:07:04,VALID,1000.88,VALID,0,VALID,95.004,VALID,0,VALID,24.519,VALID,6,VALID,0.560156,
2012-03-23, 01:08:04,VALID,1000.86,VALID,0,VALID,95.0117,VALID,0,VALID,24.4995,VALID,6,VALID,0.548047,
2012-03-23, 01:09:04,VALID,1000.88,VALID,0,VALID,95.004,VALID,0,VALID,24.5209,VALID,7,VALID,0.569141,
2012-03-23, 01:10:04,VALID,1000.91,VALID,0,VALID,95.0117,VALID,0,VALID,24.4995,VALID,9,VALID,0.644922,
2012-03-23, 01:11:04,VALID,1000.92,VALID,0,VALID,95.0117,VALID,0,VALID,24.4995,VALID,51,VALID,0.774609,
2012-03-23, 01:12:04,VALID,1000.94,VALID,0,VALID,95.0117,VALID,0,VALID,24.4995,VALID,57,VALID,0.771875,
2012-03-23, 01:13:04,VALID,1000.94,VALID,0,VALID,95.0193,VALID,0,VALID,24.519,VALID,57,VALID,0.894922,
2012-03-23, 01:14:04,VALID,1001.01,VALID,0,VALID,95.0422,VALID,0,VALID,24.519,VALID,65,VALID,0.755859,
2012-03-23, 01:15:04,VALID,1001.02,VALID,0,VALID,95.0345,VALID,0,VALID,24.519,VALID,64,VALID,1.19922,
2012-03-23, 01:16:04,VALID,1001,VALID,0,VALID,95.0498,VALID,0,VALID,24.519,VALID,60,VALID,1.21563,
2012-03-23, 01:17:04,VALID,1001,VALID,0,VALID,95.0574,VALID,0,VALID,24.5385,VALID,59,VALID,1.18555,
2012-03-23, 01:18:04,VALID,1001.02,VALID,0,VALID,95.0651,VALID,0.104696,VALID,24.5385,VALID,61,VALID,1.07617,
2012-03-23, 01:19:04,VALID,1001.02,VALID,0,VALID,95.0727,VALID,0,VALID,24.5385,VALID,60,VALID,0.76875,
2012-03-23, 01:20:04,VALID,1000.99,VALID,0,VALID,95.0651,VALID,0,VALID,24.5404,VALID,59,VALID,0.898047,
2012-03-23, 01:21:04,VALID,1001.03,VALID,0,VALID,95.0803,VALID,0,VALID,24.5209,VALID,48,VALID,0.639063,
2012-03-23, 01:22:04,VALID,1001,VALID,0,VALID,95.0727,VALID,0,VALID,24.5422,VALID,48,VALID,0.64375,
2012-03-23, 01:23:04,VALID,1001.01,VALID,0,VALID,95.088,VALID,0,VALID,24.5404,VALID,48,VALID,0.512891,
2012-03-23, 01:24:04,VALID,1000.97,VALID,0,VALID,95.0651,VALID,0,VALID,24.5209,VALID,48,VALID,0.283984,
2012-03-23, 01:25:04,VALID,1000.99,VALID,0,VALID,95.1032,VALID,0,VALID,24.5209,VALID,48,VALID,0,
2012-03-23, 01:26:04,VALID,1000.98,VALID,0,VALID,95.088,VALID,0,VALID,24.5422,VALID,48,VALID,0,
2012-03-23, 01:27:04,VALID,1000.96,VALID,0,VALID,95.0803,VALID,0,VALID,24.5013,VALID,48,VALID,0.251172,
2012-03-23, 01:28:04,VALID,1000.97,VALID,0,VALID,95.0727,VALID,0,VALID,24.5013,VALID,48,VALID,0.466016,
2012-03-23, 01:29:04,VALID,1000.93,VALID,0,VALID,95.0727,VALID,0,VALID,24.5032,VALID,48,VALID,0.537109,
2012-03-23, 01:30:04,VALID,1000.94,VALID,0,VALID,95.088,VALID,0,VALID,24.4818,VALID,48,VALID,0.557813,
2012-03-23, 01:31:04,VALID,1000.91,VALID,0,VALID,95.088,VALID,0,VALID,24.5013,VALID,48,VALID,0.630078,
2012-03-23, 01:32:04,VALID,1000.92,VALID,0,VALID,95.0956,VALID,0,VALID,24.4818,VALID,48,VALID,0.489453,
2012-03-23, 01:33:04,VALID,1000.92,VALID,0,VALID,95.088,VALID,0,VALID,24.5032,VALID,48,VALID,0.438281,
2012-03-23, 01:34:04,VALID,1000.89,VALID,0,VALID,95.088,VALID,0,VALID,24.4818,VALID,48,VALID,0.432422,
2012-03-23, 01:35:04,VALID,1000.89,VALID,0,VALID,95.0956,VALID,0,VALID,24.4818,VALID,48,VALID,0.59375,
2012-03-23, 01:36:04,VALID,1000.86,VALID,0,VALID,95.0803,VALID,0,VALID,24.4623,VALID,7,VALID,0.712891,
2012-03-23, 01:37:04,VALID,1000.85,VALID,0,VALID,95.1032,VALID,0,VALID,24.4623,VALID,7,VALID,0.513672,
2012-03-23, 01:38:04,VALID,1000.84,VALID,0,VALID,95.0956,VALID,0,VALID,24.4623,VALID,7,VALID,0.19375,
2012-03-23, 01:39:04,VALID,1000.82,VALID,0,VALID,95.088,VALID,0,VALID,24.4428,VALID,7,VALID,0.0179687,
2012-03-23, 01:40:04,VALID,1000.85,VALID,0,VALID,95.0803,VALID,0,VALID,24.4428,VALID,7,VALID,0,
2012-03-23, 01:41:04,VALID,1000.86,VALID,0,VALID,95.088,VALID,0,VALID,24.4233,VALID,7,VALID,0.326953,
2012-03-23, 01:42:04,VALID,1000.86,VALID,0,VALID,95.0956,VALID,0,VALID,24.4233,VALID,8,VALID,0.834766,
2012-03-23, 01:43:04,VALID,1000.86,VALID,0,VALID,95.0956,VALID,0,VALID,24.4037,VALID,11,VALID,0.687109,
2012-03-23, 01:44:04,VALID,1000.89,VALID,0,VALID,95.1261,VALID,0,VALID,24.3842,VALID,11,VALID,0.532812,
2012-03-23, 01:45:04,VALID,1000.91,VALID,0,VALID,95.1108,VALID,0,VALID,24.3842,VALID,11,VALID,0.563281,
2012-03-23, 01:46:04,VALID,1000.88,VALID,0,VALID,95.1337,VALID,0,VALID,24.3647,VALID,11,VALID,0.668359,
2012-03-23, 01:47:04,VALID,1000.91,VALID,0,VALID,95.1032,VALID,0,VALID,24.3452,VALID,11,VALID,0.755469,
2012-03-23, 01:48:04,VALID,1000.91,VALID,0,VALID,95.1185,VALID,0,VALID,24.3647,VALID,14,VALID,0.525,
2012-03-23, 01:49:04,VALID,1000.94,VALID,0,VALID,95.1337,VALID,0,VALID,24.3452,VALID,34,VALID,0.719922,
2012-03-23, 01:50:04,VALID,1000.95,VALID,0,VALID,95.1414,VALID,0,VALID,24.3452,VALID,53,VALID,0.661328,
2012-03-23, 01:51:04,VALID,1000.95,VALID,0,VALID,95.1108,VALID,0,VALID,24.3452,VALID,53,VALID,0.586328,
2012-03-23, 01:52:04,VALID,1000.96,VALID,0,VALID,95.1414,VALID,0,VALID,24.3666,VALID,62,VALID,0.801562,
2012-03-23, 01:53:04,VALID,1000.98,VALID,0,VALID,95.1566,VALID,0,VALID,24.3452,VALID,73,VALID,0.995313,
2012-03-23, 01:54:04,VALID,1000.99,VALID,0,VALID,95.1719,VALID,0,VALID,24.3666,VALID,76,VALID,0.853906,
2012-03-23, 01:55:04,VALID,1001,VALID,0,VALID,95.1643,VALID,0,VALID,24.3452,VALID,82,VALID,0.796484,
2012-03-23, 01:56:04,VALID,1000.99,VALID,0,VALID,95.1719,VALID,0,VALID,24.3257,VALID,100,VALID,0.953906,
2012-03-23, 01:57:04,VALID,1000.97,VALID,0,VALID,95.1719,VALID,0,VALID,24.3257,VALID,108,VALID,1.16094,
2012-03-23, 01:58:04,VALID,1000.96,VALID,0,VALID,95.1795,VALID,0,VALID,24.3062,VALID,111,VALID,0.876172,
2012-03-23, 01:59:04,VALID,1000.95,VALID,0,VALID,95.1719,VALID,0,VALID,24.3062,VALID,116,VALID,0.879297,
2012-03-23, 02:00:04,VALID,1000.93,VALID,0,VALID,95.1795,VALID,0,VALID,24.3257,VALID,116,VALID,0.908594,
2012-03-23, 02:01:04,VALID,1000.94,VALID,0,VALID,95.1948,VALID,0,VALID,24.3062,VALID,116,VALID,0.882422,
2012-03-23, 02:02:04,VALID,1000.92,VALID,0,VALID,95.1795,VALID,0,VALID,24.2866,VALID,116,VALID,0.653516,
2012-03-23, 02:03:04,VALID,1000.91,VALID,0,VALID,95.1871,VALID,0,VALID,24.2866,VALID,116,VALID,0.650391,
2012-03-23, 02:04:04,VALID,1000.86,VALID,0,VALID,95.1871,VALID,0,VALID,24.308,VALID,116,VALID,0.398438,
2012-03-23, 02:05:04,VALID,1000.88,VALID,0,VALID,95.2024,VALID,0,VALID,24.2671,VALID,116,VALID,0,
2012-03-23, 02:06:04,VALID,1000.83,VALID,0,VALID,95.2177,VALID,0,VALID,24.2671,VALID,116,VALID,0,
2012-03-23, 02:07:04,VALID,1000.86,VALID,0,VALID,95.21,VALID,0,VALID,24.269,VALID,116,VALID,0,
2012-03-23, 02:08:04,VALID,1000.84,VALID,0,VALID,95.2024,VALID,0,VALID,24.2476,VALID,116,VALID,0,
2012-03-23, 02:09:04,VALID,1000.82,VALID,0,VALID,95.21,VALID,0,VALID,24.269,VALID,116,VALID,0,
2012-03-23, 02:10:04,VALID,1000.81,VALID,0,VALID,95.2177,VALID,0,VALID,24.2281,VALID,116,VALID,0,
2012-03-23, 02:11:04,VALID,1000.79,VALID,0,VALID,95.2024,VALID,0,VALID,24.2476,VALID,116,VALID,0,
2012-03-23, 02:12:04,VALID,1000.79,VALID,0,VALID,95.2024,VALID,0,VALID,24.2671,VALID,116,VALID,0,
2012-03-23, 02:13:04,VALID,1000.76,VALID,0,VALID,95.2177,VALID,0,VALID,24.2458,VALID,116,VALID,0,
2012-03-23, 02:14:04,VALID,1000.76,VALID,0,VALID,95.2177,VALID,0,VALID,24.2671,VALID,116,VALID,0,
2012-03-23, 02:15:04,VALID,1000.77,VALID,0,VALID,95.2177,VALID,0,VALID,24.2671,VALID,116,VALID,0,
2012-03-23, 02:16:04,VALID,1000.78,VALID,0,VALID,95.2253,VALID,0,VALID,24.2671,VALID,116,VALID,0,
2012-03-23, 02:17:04,VALID,1000.81,VALID,0,VALID,95.2253,VALID,0,VALID,24.2476,VALID,116,VALID,0,
2012-03-23, 02:18:04,VALID,1000.82,VALID,0,VALID,95.21,VALID,0,VALID,24.2671,VALID,116,VALID,0,
2012-03-23, 02:19:04,VALID,1000.81,VALID,0,VALID,95.2177,VALID,0,VALID,24.2671,VALID,116,VALID,0,
2012-03-23, 02:20:04,VALID,1000.8,VALID,0,VALID,95.2329,VALID,0,VALID,24.2671,VALID,116,VALID,0,
2012-03-23, 02:21:04,VALID,1000.8,VALID,0,VALID,95.2024,VALID,0,VALID,24.2866,VALID,116,VALID,0,
2012-03-23, 02:22:04,VALID,1000.8,VALID,0,VALID,95.21,VALID,0,VALID,24.3062,VALID,116,VALID,0,
2012-03-23, 02:23:04,VALID,1000.77,VALID,0,VALID,95.2024,VALID,0,VALID,24.3062,VALID,116,VALID,0,
2012-03-23, 02:24:04,VALID,1000.76,VALID,0,VALID,95.2177,VALID,0,VALID,24.3062,VALID,116,VALID,0,
2012-03-23, 02:25:04,VALID,1000.77,VALID,0,VALID,95.2177,VALID,0,VALID,24.3257,VALID,116,VALID,0,
2012-03-23, 02:26:04,VALID,1000.75,VALID,0,VALID,95.2253,VALID,0,VALID,24.3452,VALID,116,VALID,0,
2012-03-23, 02:27:04,VALID,1000.8,VALID,0,VALID,95.2253,VALID,0,VALID,24.3647,VALID,157,VALID,0.861328,
2012-03-23, 02:28:04,VALID,1000.77,VALID,0,VALID,95.2253,VALID,0,VALID,24.3647,VALID,157,VALID,0.834375,
2012-03-23, 02:29:04,VALID,1000.77,VALID,0,VALID,95.21,VALID,0,VALID,24.3842,VALID,157,VALID,0.667578,
2012-03-23, 02:30:04,VALID,1000.77,VALID,0,VALID,95.2329,VALID,0,VALID,24.3842,VALID,156,VALID,0.539063,
2012-03-23, 02:31:04,VALID,1000.72,VALID,0,VALID,95.2253,VALID,0,VALID,24.4037,VALID,142,VALID,0.582422,
2012-03-23, 02:32:04,VALID,1000.75,VALID,0,VALID,95.2405,VALID,0,VALID,24.3842,VALID,136,VALID,0.698438,
2012-03-23, 02:33:04,VALID,1000.77,VALID,0,VALID,95.2177,VALID,0,VALID,24.3824,VALID,135,VALID,0.624219,
2012-03-23, 02:34:04,VALID,1000.81,VALID,0,VALID,95.2329,VALID,0,VALID,24.3842,VALID,101,VALID,0.821094,
2012-03-23, 02:35:04,VALID,1000.81,VALID,0,VALID,95.2177,VALID,0,VALID,24.3842,VALID,84,VALID,0.946484,
2012-03-23, 02:36:04,VALID,1000.83,VALID,0,VALID,95.2024,VALID,0,VALID,24.3842,VALID,83,VALID,0.956641,
2012-03-23, 02:37:04,VALID,1000.85,VALID,0,VALID,95.2024,VALID,0,VALID,24.4037,VALID,76,VALID,0.941797,
2012-03-23, 02:38:04,VALID,1000.89,VALID,0,VALID,95.2177,VALID,0,VALID,24.3842,VALID,73,VALID,0.865625,
2012-03-23, 02:39:04,VALID,1000.87,VALID,0,VALID,95.2024,VALID,0,VALID,24.3842,VALID,73,VALID,0.591016,
2012-03-23, 02:40:04,VALID,1000.86,VALID,0,VALID,95.2024,VALID,0,VALID,24.4037,VALID,73,VALID,0.688672,
2012-03-23, 02:41:04,VALID,1000.85,VALID,0,VALID,95.21,VALID,0,VALID,24.4037,VALID,73,VALID,0.741016,
2012-03-23, 02:42:04,VALID,1000.84,VALID,0,VALID,95.2024,VALID,0,VALID,24.4233,VALID,73,VALID,0.671875,
2012-03-23, 02:43:04,VALID,1000.78,VALID,0,VALID,95.2177,VALID,0,VALID,24.3824,VALID,72,VALID,0.810156,
2012-03-23, 02:44:04,VALID,1000.73,VALID,0,VALID,95.21,VALID,0,VALID,24.4037,VALID,72,VALID,0.649609,
2012-03-23, 02:45:04,VALID,1000.7,VALID,0,VALID,95.1948,VALID,0,VALID,24.3824,VALID,72,VALID,0.348437,
2012-03-23, 02:46:04,VALID,1000.71,VALID,0,VALID,95.2024,VALID,0,VALID,24.4037,VALID,72,VALID,0.479297,
2012-03-23, 02:47:04,VALID,1000.68,VALID,0,VALID,95.2253,VALID,0,VALID,24.3842,VALID,72,VALID,0,
2012-03-23, 02:48:04,VALID,1000.71,VALID,0,VALID,95.21,VALID,0,VALID,24.3842,VALID,72,VALID,0,
2012-03-23, 02:49:04,VALID,1000.71,VALID,0,VALID,95.2177,VALID,0,VALID,24.3842,VALID,72,VALID,0.0175781,
2012-03-23, 02:50:04,VALID,1000.72,VALID,0,VALID,95.2024,VALID,0,VALID,24.3647,VALID,72,VALID,0,
2012-03-23, 02:51:04,VALID,1000.76,VALID,0,VALID,95.1871,VALID,0,VALID,24.3647,VALID,72,VALID,0,
2012-03-23, 02:52:04,VALID,1000.76,VALID,0,VALID,95.21,VALID,0,VALID,24.3861,VALID,72,VALID,0,
2012-03-23, 02:53:04,VALID,1000.74,VALID,0,VALID,95.1871,VALID,0,VALID,24.3452,VALID,72,VALID,0,
2012-03-23, 02:54:04,VALID,1000.74,VALID,0,VALID,95.1948,VALID,0,VALID,24.3452,VALID,72,VALID,0,
2012-03-23, 02:55:04,VALID,1000.73,VALID,0,VALID,95.1795,VALID,0,VALID,24.3452,VALID,72,VALID,0,
2012-03-23, 02:56:04,VALID,1000.73,VALID,0,VALID,95.1871,VALID,0,VALID,24.3647,VALID,72,VALID,0,
2012-03-23, 02:57:04,VALID,1000.71,VALID,0,VALID,95.1795,VALID,0,VALID,24.3452,VALID,72,VALID,0.1,
2012-03-23, 02:58:04,VALID,1000.7,VALID,0,VALID,95.1948,VALID,0,VALID,24.3452,VALID,72,VALID,0.417188,
2012-03-23, 02:59:04,VALID,1000.66,VALID,0,VALID,95.1871,VALID,0,VALID,24.3647,VALID,72,VALID,0.283594,
2012-03-23, 03:00:04,VALID,1000.62,VALID,0,VALID,95.1719,VALID,0,VALID,24.3647,VALID,72,VALID,0.293359,
2012-03-23, 03:01:04,VALID,1000.61,VALID,0,VALID,95.1871,VALID,0,VALID,24.3647,VALID,72,VALID,0.223438,
2012-03-23, 03:02:04,VALID,1000.56,VALID,0,VALID,95.1643,VALID,0,VALID,24.3452,VALID,72,VALID,0.0714844,
2012-03-23, 03:03:04,VALID,1000.55,VALID,0,VALID,95.1795,VALID,0,VALID,24.3452,VALID,72,VALID,0.259766,
2012-03-23, 03:04:04,VALID,1000.52,VALID,0,VALID,95.1871,VALID,0,VALID,24.3238,VALID,72,VALID,0.158984,
2012-03-23, 03:05:04,VALID,1000.48,VALID,0,VALID,95.1948,VALID,0,VALID,24.3452,VALID,72,VALID,0.00195313,
2012-03-23, 03:06:04,VALID,1000.46,VALID,0,VALID,95.1719,VALID,0,VALID,24.3452,VALID,72,VALID,0.202734,
2012-03-23, 03:07:04,VALID,1000.4,VALID,0,VALID,95.1719,VALID,0,VALID,24.3452,VALID,72,VALID,0.0667969,
2012-03-23, 03:08:04,VALID,1000.4,VALID,0,VALID,95.1719,VALID,0,VALID,24.3452,VALID,72,VALID,0,
2012-03-23, 03:09:04,VALID,1000.39,VALID,0,VALID,95.1643,VALID,0,VALID,24.3861,VALID,72,VALID,0.291016,
2012-03-23, 03:10:04,VALID,1000.4,VALID,0,VALID,95.1719,VALID,0,VALID,24.3647,VALID,72,VALID,0.4,
2012-03-23, 03:11:04,VALID,1000.41,VALID,0,VALID,95.1643,VALID,0,VALID,24.3666,VALID,72,VALID,0.653906,
2012-03-23, 03:12:04,VALID,1000.41,VALID,0,VALID,95.1719,VALID,0,VALID,24.3647,VALID,72,VALID,0.630469,
2012-03-23, 03:13:04,VALID,1000.39,VALID,0,VALID,95.1795,VALID,0,VALID,24.3452,VALID,72,VALID,0.637891,
2012-03-23, 03:14:04,VALID,1000.41,VALID,0,VALID,95.1643,VALID,0,VALID,24.3647,VALID,72,VALID,0.754687,
2012-03-23, 03:15:04,VALID,1000.4,VALID,0,VALID,95.1643,VALID,0,VALID,24.3647,VALID,72,VALID,0.731641,
2012-03-23, 03:16:04,VALID,1000.4,VALID,0,VALID,95.1566,VALID,0,VALID,24.3647,VALID,72,VALID,0.704687,
2012-03-23, 03:17:04,VALID,1000.38,VALID,0,VALID,95.1871,VALID,0,VALID,24.3452,VALID,72,VALID,0.608594,
2012-03-23, 03:18:04,VALID,1000.35,VALID,0,VALID,95.1871,VALID,0,VALID,24.3452,VALID,72,VALID,0.684766,
2012-03-23, 03:19:04,VALID,1000.34,VALID,0,VALID,95.1719,VALID,0,VALID,24.3257,VALID,72,VALID,0.708594,
2012-03-23, 03:20:04,VALID,1000.33,VALID,0,VALID,95.1643,VALID,0,VALID,24.3257,VALID,72,VALID,0.841016,
2012-03-23, 03:21:04,VALID,1000.33,VALID,0,VALID,95.1566,VALID,0,VALID,24.3062,VALID,72,VALID,0.606641,
2012-03-23, 03:22:04,VALID,1000.3,VALID,0,VALID,95.149,VALID,0,VALID,24.308,VALID,72,VALID,0.602734,
2012-03-23, 03:23:04,VALID,1000.38,VALID,0,VALID,95.1414,VALID,0,VALID,24.2671,VALID,72,VALID,0.451172,
2012-03-23, 03:24:04,VALID,1000.38,VALID,0,VALID,95.149,VALID,0,VALID,24.2866,VALID,72,VALID,0.348437,
2012-03-23, 03:25:04,VALID,1000.4,VALID,0,VALID,95.1108,VALID,0,VALID,24.2671,VALID,72,VALID,0.514844,
2012-03-23, 03:26:04,VALID,1000.43,VALID,0,VALID,95.1261,VALID,0,VALID,24.2671,VALID,72,VALID,0.154687,
2012-03-23, 03:27:04,VALID,1000.46,VALID,0,VALID,95.1185,VALID,0,VALID,24.2476,VALID,72,VALID,0,
2012-03-23, 03:28:04,VALID,1000.45,VALID,0,VALID,95.1108,VALID,0,VALID,24.2671,VALID,72,VALID,0.175391,
2012-03-23, 03:29:04,VALID,1000.46,VALID,0,VALID,95.1108,VALID,0,VALID,24.2476,VALID,72,VALID,0.655078,
2012-03-23, 03:30:04,VALID,1000.47,VALID,0,VALID,95.1032,VALID,0,VALID,24.2476,VALID,114,VALID,0.713672,
2012-03-23, 03:31:04,VALID,1000.47,VALID,0,VALID,95.1261,VALID,0,VALID,24.2476,VALID,114,VALID,0.649609,
2012-03-23, 03:32:04,VALID,1000.48,VALID,0,VALID,95.1261,VALID,0,VALID,24.2476,VALID,114,VALID,0.606641,
2012-03-23, 03:33:04,VALID,1000.51,VALID,0,VALID,95.1032,VALID,0,VALID,24.2671,VALID,114,VALID,0.699219,
2012-03-23, 03:34:04,VALID,1000.51,VALID,0,VALID,95.1032,VALID,0,VALID,24.308,VALID,114,VALID,0.374219,
2012-03-23, 03:35:04,VALID,1000.55,VALID,0,VALID,95.1032,VALID,0,VALID,24.2866,VALID,114,VALID,0,
2012-03-23, 03:36:04,VALID,1000.58,VALID,0,VALID,95.1108,VALID,0,VALID,24.2866,VALID,114,VALID,0,
2012-03-23, 03:37:04,VALID,1000.59,VALID,0,VALID,95.1032,VALID,0,VALID,24.2866,VALID,114,VALID,0,
2012-03-23, 03:38:04,VALID,1000.6,VALID,0,VALID,95.1032,VALID,0,VALID,24.3062,VALID,114,VALID,0.11875,
2012-03-23, 03:39:04,VALID,1000.58,VALID,0,VALID,95.1337,VALID,0,VALID,24.3062,VALID,114,VALID,0.112109,
2012-03-23, 03:40:04,VALID,1000.59,VALID,0,VALID,95.1032,VALID,0,VALID,24.3062,VALID,103,VALID,0.508203,
2012-03-23, 03:41:04,VALID,1000.57,VALID,0,VALID,95.1032,VALID,0,VALID,24.2866,VALID,28,VALID,0.823047,
2012-03-23, 03:42:04,VALID,1000.6,VALID,0,VALID,95.088,VALID,0,VALID,24.2866,VALID,28,VALID,0.73125,
2012-03-23, 03:43:04,VALID,1000.57,VALID,0,VALID,95.0956,VALID,0,VALID,24.2866,VALID,28,VALID,0.596875,
2012-03-23, 03:44:04,VALID,1000.59,VALID,0,VALID,95.1032,VALID,0,VALID,24.2866,VALID,28,VALID,0.380859,
2012-03-23, 03:45:04,VALID,1000.58,VALID,0,VALID,95.0803,VALID,0,VALID,24.2866,VALID,28,VALID,0.185547,
2012-03-23, 03:46:04,VALID,1000.55,VALID,0,VALID,95.0803,VALID,0,VALID,24.2866,VALID,28,VALID,0.335156,
2012-03-23, 03:47:04,VALID,1000.6,VALID,0,VALID,95.0574,VALID,0,VALID,24.2866,VALID,28,VALID,0.272656,
2012-03-23, 03:48:04,VALID,1000.61,VALID,0,VALID,95.0803,VALID,0,VALID,24.2866,VALID,28,VALID,0.286719,
2012-03-23, 03:49:04,VALID,1000.66,VALID,0,VALID,95.0803,VALID,0,VALID,24.2866,VALID,28,VALID,0.511719,
2012-03-23, 03:50:04,VALID,1000.67,VALID,0,VALID,95.0574,VALID,0,VALID,24.2866,VALID,28,VALID,0.610156,